Location: Milton
(43.5183°N, 79.8775°W)
Time: 15:52:37
(UTC+00:00)

UNISAT 6 - Pass Details

Date: 28 March 2023
Orbit: 599 x 680 km, 97.7° (Epoch: 02 June)

Event Time Altitude Azimuth Distance (km) Brightness Sun altitude
Rises 08:31:45 0° 110° (ESE) 2,912 ? -27.4°
Reaches altitude 10° 08:35:34 10° 75° (ENE) 2,033 ? -26.9°
Maximum altitude 08:36:48 11° 59° (ENE) 1,971 ? -26.7°
Drops below altitude 10° 08:38:03 10° 43° (NE) 2,052 ? -26.5°
Sets 08:41:57 0° 9° (N) 2,992 ? -25.9°
